Weather History for KCBK - November, 2012

Change the Weather History Date:

Thursday, November 1, 2012

  Actual Average (KGLD) Record (KGLD)
Temperature  
Mean Temperature 55 °F 46 °F  
Max Temperature 77 °F 60 °F 79 °F (1915)
Min Temperature 33 °F 32 °F 4 °F (1951)
Degree Days  
Heating Degree Days 10 19  
Month to date heating degree days 19  
Since 1 July heating degree days 559  
Cooling Degree Days 0 0  
Month to date cooling degree days 0  
Year to date cooling degree days 941  
Growing Degree Days 5 (Base 50)    
Moisture  
Dew Point 35 °F    
Average Humidity 53    
Maximum Humidity 93    
Minimum Humidity 24    
Precipitation  
Precipitation 0.00 in 0.03 in 0.90 in (1928)
Month to date precipitation 0.03  
Year to date precipitation 18.52  
Snow  
Snow - 0.10 in - ()
Month to date snowfall 0.1  
Since 1 July snowfall 2.7  
Since 1 September snowfall 2.7  
Snow Depth -    
Sea Level Pressure  
Sea Level Pressure 29.99 in    
Wind  
Wind Speed 8 mph ()    
Max Wind Speed 15 mph    
Max Gust Speed 18 mph    
Visibility 10.0 miles    
Events      
T = Trace of Precipitation, MM = Missing Value Source: Averaged Metar Reports

Daily Weather History Graph

Daily Weather History Graph

Search for Another Location

Airport or City:

Trip Planner

Search our weather history database for the weather conditions in past years. The results will help you decide how hot, cold, wet, or windy it might be!

Date:

Astronomy

Nov. 01, 2012 Rise Set
Actual Time 8:12 AM CDT 6:42 PM CDT
Civil Twilight 7:44 AM CDT 7:09 PM CDT
Nautical Twilight 7:13 AM CDT 7:41 PM CDT
Astronomical Twilight 6:41 AM CDT 8:13 PM CDT
Moon 8:41 PM CDT 10:46 AM CDT
Length of Visible Light 11h 25m
Length of Day
10h 29m
Waning Gibbous, 93% of the Moon is Illuminated
Nov 1
Waning Gibbous
Nov 6
Last Quarter
Nov 13
New
Nov 20
First Quarter
Nov 28
Full

Hourly Weather History & Observations

Time (CDT) Temp. Windchill Dew Point Humidity Pressure Visibility Wind Dir Wind Speed Gust Speed Precip Events Conditions
12:15 AM 41.0 °F 36.4 °F 32.0 °F 70% 30.08 in 10.0 mi West 6.9 mph - N/A   Clear
12:35 AM 41.0 °F 37.1 °F 32.0 °F 70% 30.08 in 10.0 mi WSW 5.8 mph - N/A   Clear
1:15 AM 39.2 °F 34.2 °F 32.0 °F 75% 30.08 in 10.0 mi West 6.9 mph - N/A   Clear
1:35 AM 39.2 °F 33.6 °F 32.0 °F 75% 30.08 in 10.0 mi West 8.1 mph - N/A   Clear
1:55 AM 37.4 °F 32.1 °F 32.0 °F 81% 30.08 in 10.0 mi West 6.9 mph - N/A   Clear
2:15 AM 37.4 °F 30.8 °F 32.0 °F 81% 30.08 in 10.0 mi West 9.2 mph - N/A   Clear
2:35 AM 37.4 °F 31.4 °F 32.0 °F 81% 30.08 in 10.0 mi West 8.1 mph - N/A   Clear
2:55 AM 39.2 °F 33.6 °F 32.0 °F 75% 30.08 in 10.0 mi WSW 8.1 mph - N/A   Clear
3:15 AM 39.2 °F 32.5 °F 32.0 °F 75% 30.08 in 10.0 mi West 10.4 mph - N/A   Clear
3:35 AM 39.2 °F 32.5 °F 32.0 °F 75% 30.07 in 10.0 mi West 10.4 mph - N/A   Clear
3:55 AM 37.4 °F 31.4 °F 32.0 °F 81% 30.07 in 10.0 mi West 8.1 mph - N/A   Clear
4:15 AM 37.4 °F 30.8 °F 32.0 °F 81% 30.07 in 10.0 mi West 9.2 mph - N/A   Clear
4:35 AM 37.4 °F 31.4 °F 32.0 °F 81% 30.06 in 10.0 mi West 8.1 mph - N/A   Clear
5:15 AM 37.4 °F 29.8 °F 32.0 °F 81% 30.05 in 10.0 mi West 11.5 mph - N/A   Clear
5:35 AM 37.4 °F 30.3 °F 32.0 °F 81% 30.06 in 10.0 mi West 10.4 mph - N/A   Clear
6:15 AM 39.2 °F 32.5 °F 32.0 °F 75% 30.06 in 10.0 mi West 10.4 mph - N/A   Clear
6:35 AM 37.4 °F 30.3 °F 32.0 °F 81% 30.06 in 10.0 mi West 10.4 mph - N/A   Clear
7:15 AM 37.4 °F 30.8 °F 32.0 °F 81% 30.05 in 10.0 mi WNW 9.2 mph - N/A   Clear
7:55 AM 35.6 °F 30.7 °F 32.0 °F 87% 30.05 in 10.0 mi WNW 5.8 mph - N/A   Clear
8:15 AM 33.8 °F 28.6 °F 32.0 °F 93% 30.06 in 10.0 mi West 5.8 mph - N/A   Clear
8:35 AM 35.6 °F 29.2 °F 32.0 °F 87% 30.06 in 10.0 mi WNW 8.1 mph - N/A   Clear
8:55 AM 39.2 °F 34.2 °F 32.0 °F 75% 30.06 in 10.0 mi NW 6.9 mph - N/A   Clear
9:15 AM 42.8 °F 39.3 °F 33.8 °F 70% 30.06 in 10.0 mi WNW 5.8 mph - N/A   Clear
9:35 AM 46.4 °F 45.2 °F 35.6 °F 66% 30.06 in 10.0 mi NW 3.5 mph - N/A   Clear
9:55 AM 50.0 °F - 35.6 °F 58% 30.06 in 10.0 mi WNW 3.5 mph - N/A   Clear
10:15 AM 53.6 °F - 35.6 °F 51% 30.06 in 10.0 mi Calm Calm - N/A   Clear
10:35 AM 55.4 °F - 35.6 °F 47% 30.05 in 10.0 mi Calm Calm - N/A   Clear
10:55 AM 60.8 °F - 37.4 °F 42% 30.04 in 10.0 mi Calm Calm - N/A   Clear
11:15 AM 62.6 °F - 37.4 °F 39% 30.04 in 7.0 mi ENE 3.5 mph - N/A   Clear
11:35 AM 64.4 °F - 37.4 °F 37% 30.05 in 10.0 mi East 3.5 mph - N/A   Clear
11:55 AM 64.4 °F - 37.4 °F 37% 30.04 in 10.0 mi ESE 3.5 mph - N/A   Clear
12:15 PM 68.0 °F - 37.4 °F 33% 30.04 in 10.0 mi SE 3.5 mph - N/A   Clear
12:35 PM 69.8 °F - 37.4 °F 31% 30.02 in 10.0 mi SSE 8.1 mph - N/A   Clear
12:55 PM 69.8 °F - 37.4 °F 31% 30.02 in 10.0 mi ESE 11.5 mph - N/A   Clear
1:15 PM 71.6 °F - 37.4 °F 29% 30.00 in 10.0 mi ESE 10.4 mph 18.4 mph N/A   Clear
1:35 PM 73.4 °F - 39.2 °F 29% 29.99 in 10.0 mi SSE 10.4 mph 18.4 mph N/A   Clear
1:55 PM 73.4 °F - 37.4 °F 27% 29.98 in 10.0 mi SSE 11.5 mph - N/A   Clear
2:15 PM 73.4 °F - 37.4 °F 27% 29.97 in 10.0 mi SE 15.0 mph - N/A   Clear
2:35 PM 73.4 °F - 39.2 °F 29% 29.96 in 10.0 mi SSE 11.5 mph 18.4 mph N/A   Clear
2:55 PM 73.4 °F - 37.4 °F 27% 29.95 in 10.0 mi SE 11.5 mph 17.3 mph N/A   Clear
3:15 PM 73.4 °F - 37.4 °F 27% 29.95 in 10.0 mi South 12.7 mph - N/A   Clear
3:35 PM 75.2 °F - 37.4 °F 25% 29.94 in 10.0 mi SSE 13.8 mph - N/A   Clear
3:55 PM 73.4 °F - 37.4 °F 27% 29.93 in 10.0 mi SSE 12.7 mph - N/A   Clear
4:15 PM 75.2 °F - 39.2 °F 27% 29.93 in 10.0 mi SSE 12.7 mph - N/A   Clear
4:35 PM 77.0 °F - 37.4 °F 24% 29.92 in 10.0 mi SSE 15.0 mph - N/A   Clear
4:55 PM 77.0 °F - 37.4 °F 24% 29.92 in 10.0 mi SSE 15.0 mph - N/A   Clear
5:15 PM 75.2 °F - 37.4 °F 25% 29.91 in 10.0 mi SSE 15.0 mph - N/A   Clear
5:35 PM 73.4 °F - 37.4 °F 27% 29.91 in 10.0 mi SSE 12.7 mph - N/A   Clear
5:55 PM 71.6 °F - 37.4 °F 29% 29.91 in 10.0 mi SSE 11.5 mph - N/A   Clear
6:15 PM 69.8 °F - 37.4 °F 31% 29.91 in 10.0 mi SSE 10.4 mph - N/A   Clear
6:35 PM 66.2 °F - 37.4 °F 35% 29.91 in 10.0 mi SSE 10.4 mph - N/A   Clear
6:55 PM 62.6 °F - 35.6 °F 37% 29.91 in 10.0 mi SE 6.9 mph - N/A   Clear
7:15 PM 60.8 °F - 35.6 °F 39% 29.91 in 10.0 mi SE 8.1 mph - N/A   Clear
7:35 PM 59.0 °F - 35.6 °F 42% 29.91 in 10.0 mi SE 9.2 mph - N/A   Clear
7:55 PM 60.8 °F - 37.4 °F 42% 29.91 in 10.0 mi SE 13.8 mph - N/A   Clear
8:15 PM 60.8 °F - 37.4 °F 42% 29.91 in 10.0 mi SE 13.8 mph - N/A   Clear
8:55 PM 55.4 °F - 37.4 °F 51% 29.90 in 10.0 mi SE 8.1 mph - N/A   Clear
9:15 PM 55.4 °F - 39.2 °F 54% 29.90 in 10.0 mi SE 10.4 mph - N/A   Clear
9:35 PM 55.4 °F - 39.2 °F 54% 29.90 in 10.0 mi SE 8.1 mph - N/A   Clear
9:55 PM 53.6 °F - 37.4 °F 54% 29.90 in 10.0 mi SE 8.1 mph - N/A   Clear
10:15 PM 55.4 °F - 37.4 °F 51% 29.89 in 10.0 mi SSE 9.2 mph - N/A   Clear
10:35 PM 53.6 °F - 37.4 °F 54% 29.88 in 10.0 mi SE 8.1 mph - N/A   Clear
10:55 PM 51.8 °F - 37.4 °F 58% 29.88 in 10.0 mi SE 6.9 mph - N/A   Clear
11:15 PM 51.8 °F - 37.4 °F 58% 29.87 in 10.0 mi SE 8.1 mph - N/A   Clear
11:35 PM 51.8 °F - 37.4 °F 58% 29.88 in 10.0 mi SE 6.9 mph - N/A   Clear
11:55 PM 51.8 °F - 35.6 °F 54% 29.87 in 10.0 mi SE 8.1 mph - N/A   Clear